MEASAT-3B

Last updated on Tue Sep 22 2026 00:03:13 GMT+0000 (Coordinated Universal Time)

1 40147U 14054B 26264.43594377 -.00000245 00000+0 00000+0 0 9992 2 40147 0.0491 47.4616 0001043 68.0609 133.2342 1.00269447 43881
UTC large
Height (km)
Speed (km/s)
/
Latitude / Longitude
Inclination (degrees)
Orbital Period (minutes)
Azimuth
Elevation
Range (km)
Doppler Factor

Next 0 passes for location: London (51.5072 / 0.1276)

No passes found over London.
MEASAT-3B